Other Public Products
Issued by NWS Grand Forks, ND

Home | Current Version | Previous Version | Graphics & Text | Print | Product List | Glossary On
Versions: 1 2 3 4 5 6 7 8 9 10 11 12 13 14 15 16 17 18 19 20 21 22 23 24 25 26 27 28 29 30 31 32 33 34 35 36 37 38 39 40 41 42 43 44 45 46 47 48 49 50
000
FPUS83 KFGF 190210
OPUFGF
PRAIRIE TO PINES WEATHER ROUNDUP
NATIONAL WEATHER SERVICE EASTERN NORTH DAKOTA/GRAND FORKS ND
800 PM CST SUN FEB 18 2018

 **SATELLITE DATA USED TO AUGMENT SKY COVER AT AUTOMATED STATIONS**
 *****  WEATHER ACROSS EASTERN NORTH DAKOTA  *****

CITY           SKY/WX    TMP DP  RH WIND       PRES   REMARKS
GRAND FORKS    CLOUDY     9   3  77 N18       30.03R WCI -10
GRND FORKS AFB FAIR       9   1  70 N16       30.03R WCI  -9
GRND FORKS NWS   N/A      8   5  87 VRB14     30.00R WCI  -8
BUXTON           N/A     10   9  98 N13         N/A  WCI  -6
DEVILS LAKE    FAIR       5  -1  76 N13       30.03R WCI -12
FARGO          FAIR      11   7  84 N23       29.94R WCI  -9
WAHPETON ARPT  FAIR      14   9  79 N20G26    29.88R WCI  -3
$$

 *****  WEATHER ACROSS CENTRAL AND WESTERN NORTH DAKOTA  *****

CITY           SKY/WX    TMP DP  RH WIND       PRES   REMARKS
JAMESTOWN      FAIR       9   3  77 N21       29.95S WCI -11
BISMARCK       MOCLDY    10   2  69 N12       30.04R WCI  -5
MINOT          FAIR       5  -5  63 N10       30.06R WCI -10
MINOT AFB      FAIR       4  -6  64 N9        30.05R WCI -11
GARRISON         N/A      5   0  79 N10       30.04R WCI -10
WILLISTON      FAIR       0  -5  79 N8        30.08R WCI -14
DICKINSON      CLOUDY     5  -2  72 N12       29.97R WCI -11
HETTINGER      LGT SNOW   4  -1  80 N13G23    29.95R WCI -13
$$

 *****  OTHER OBSERVATIONS NORTHEAST NORTH DAKOTA  *****

CITY           SKY/WX    TMP DP  RH WIND       PRES   REMARKS
WALHALLA       FAIR       5  -4  66 N8        30.09R WCI  -8
LANGDON        NOT AVBL
CAVALIER         N/A      7  -2  66 N12       30.07R WCI  -9
GRAFTON        NOT AVBL
CANDO          CLOUDY     3  -2  78 N7        30.06R WCI  -9
FORT TOTTEN      N/A      5  -2  71 N3        29.95S
ROLLA          MOCLDY     3  -6  66 NW16      30.02R WCI -16
RUGBY          NOT AVBL
 ***** THE ABOVE OBSERVATIONS ARE NON NWS ARE NOT QUALITY
        CONTROLLED AND MAY MIS-REPORT RAIN FOR SNOW...
$$

 *****  OTHER OBSERVATIONS SOUTHEAST NORTH DAKOTA *****

CITY           SKY/WX    TMP DP  RH WIND       PRES   REMARKS
COOPERSTOWN    FAIR       9   3  78 N17       29.98S WCI -10
VALLEY CITY    NOT AVBL
OAKES            N/A      9   5  85 N24G35    29.90S WCI -12
GWINNER          N/A     10   7  85 N23G30    29.90S FOG     WCI -10
SHEYENNE NWR     N/A     11   7  85 N14       29.95S WCI  -5
BUFFALO          N/A      9   6  86 SE22        N/A  WCI -11
WYNDMERE       NOT AVBL
 ***** THE ABOVE OBSERVATIONS ARE NON NWS ARE NOT QUALITY
       CONTROLLED AND MAY MIS-REPORT RAIN FOR SNOW...
$$

  *****  WEATHER ACROSS NORTHERN MINNESOTA  *****

CITY           SKY/WX    TMP DP  RH WIND       PRES   REMARKS
FLAG ISLAND    FAIR       3  -2  78 N5        30.01R WCI  -6
WARROAD        FAIR       7   0  72 N7        30.01R WCI  -5
ROSEAU         NOT AVBL
HALLOCK        FAIR       9   0  66 N15       30.06R WCI  -8
THF RVR FALLS  FAIR       8   2  76 N15       29.99R WCI  -9
HALSTAD        NOT AVBL
FOSSTON        FAIR       7   1  78 N14G21    29.94R WCI -10
BAUDETTE       CLOUDY     7   2  80 N10       29.96R WCI  -8
WASKISH        CLOUDY    10   7  85 N7        29.93R WCI   0
CROOKSTON      FAIR      10   5  79 N12       30.01R WCI  -4
$$
  *****  WEATHER ACROSS CENTRAL AND WEST MINNESOTA  *****

CITY           SKY/WX    TMP DP  RH WIND       PRES   REMARKS
BEMIDJI        CLOUDY    10   6  84 N10       29.89R WCI  -4
PARK RAPIDS    CLOUDY    15   9  76 N16G23    29.81R WCI  -1
WADENA         CLOUDY    18  12  79 N14G20    29.79S WCI   4
DETROIT LAKES  FAIR      16  10  79 N8        29.87R WCI   5
MOORHEAD       FAIR      10   5  79 N23G29    29.93R WCI -10
FERGUS FALLS   FAIR      16  10  79 N13G18    29.84R WCI   2
ELBOW LAKE     FAIR      20  13  75 NE16      29.81R WCI   6
MORRIS MN      CLOUDY    21  12  68 N21       29.77R WCI   6
STAPLES        CLOUDY    18  12  79 N14G20    29.79R WCI   4
WHEATON        MOCLDY    16  10  79 N22G28    29.85R WCI  -2
$$
  *****  WEATHER ELSEWHERE ACROSS MINNESOTA  *****

CITY           SKY/WX    TMP DP  RH WIND       PRES   REMARKS
DULUTH         LGT SNOW  22  19  89 N9        29.75R FOG     WCI  12
INTRNTL FALLS  CLOUDY     9   4  80 NE10      29.92R WCI  -5
ELY            CLOUDY     9   3  78 NE5       29.84R WCI   0
CLOQUET        LGT SNOW  21  18  86 N7        29.76R WCI  13
BRAINERD       CLOUDY    21  14  74 N9        29.78R WCI  11
HIBBING        CLOUDY    13   9  84 N10       29.82R WCI   0
ALEXANDRIA     MOCLDY    19  13  77 N14       29.77R WCI   6
SAINT CLOUD    CLOUDY    24  19  81 N14G23    29.72R WCI  12
MINNEAPOLIS    MOCLDY    37  31  78 S5        29.67R
$$

  *****  WEATHER ACROSS SOUTH DAKOTA  *****

CITY           SKY/WX    TMP DP  RH WIND       PRES   REMARKS
SIOUX FALLS    MOCLDY    30  24  78 N15       29.68R WCI  19
BROOKINGS      MOCLDY    21  17  84 N20G25    29.72R WCI   6
WATERTOWN      MOCLDY    15  12  88 N25G32    29.70F WCI  -4
HURON          CLOUDY    18  13  80 N17G28    29.83R WCI   3
SISSETON         N/A     13   9  84 N24       29.86R WCI  -7
ABERDEEN       CLOUDY    13   6  74 N29G36    29.87S WCI  -8
MITCHELL       CLOUDY    22  17  81 N18       29.80R WCI   7
PIERRE         LGT SNOW  14  11  87 N22       29.90R FOG     WCI  -4
MOBRIDGE       LGT SNOW  12   5  73 N25       29.91R WCI  -8
RAPID CITY     SNOW       7   4  87 N18       29.86F VSB 1/2 WCI -12
$$

  *****  SOME WEATHER IN NEARBY STATES *****

CITY           SKY/WX    TMP DP  RH WIND       PRES   REMARKS
GLASGOW MT     CLOUDY     2  -3  80 NW5       30.07R WCI  -8
GREAT FALLS MT LGT SNOW   0  -5  79 NE9       30.01R WCI -15
CHEYENNE WY    FOG       20  20 100 NE21G30   29.56R VSB 1/4 WCI   4
SCOTTSBLUFF NE CLOUDY    17  10  74 NE20G30   29.74R WCI   1
OMAHA NE       FAIR      47  37  68 S9        29.61R
DES MOINES IA  MOCLDY    45  30  55 S9        29.69S
DAVENPORT IA   FAIR      41  30  65 S22       29.81F
CHICAGO IL     CLOUDY    38  30  73 SE16      29.93F
EAU CLAIRE WI  CLOUDY    37  27  67 S7        29.70S
LA CROSSE WI   FAIR      39  29  67 S9        29.76S
$$

  *****  SOME NATIONAL WEATHER *****

CITY           SKY/WX    TMP DP  RH WIND       PRES   REMARKS
LA GUARDIA NY  FAIR      40  24  53 CALM      30.49R
RALEIGH NC     MOCLDY    50  40  68 E8        30.41R
ATLANTA GA     CLOUDY    60  58  92 E7        30.27R
NEW ORLEANS LA FAIR      71  65  81 SE7       30.15R
OKLAHOMA CITY  DRZL/FOG  53  53 100 S21G29    29.76S VSB 1/2
ALBUQUERQUE NM MOCLDY    58  27  30 W20G28    29.80R
SALT LAKE CITY LGT SNOW  35  33  92 N9        29.55S FOG
LOS ANGELES CA FAIR      58  50  75 W10       29.89F
BOISE ID       FAIR      30  25  81 NE3       29.62S
SEATTLE WA     FAIR      32  17  54 N28G40    29.83R WCI  18
$$

*** WEATHER ACROSS MANITOBA...SASKATCHEWAN AND ONTARIO ***
                ***ONTARIO***

CITY           SKY/WX    TMP DP  RH WIND       PRES   REMARKS
GERALDTON      LGT SNOW   3   0  85 NE7       29.96F WCI  -9
THUNDER BAY    FLURRIES  10   5  79 N6        29.89S WCI   1
SIOUX LOOKOUT  PTCLDY    -4  -8  84 CALM      29.99R
TORONTO        MOCLDY    32  23  69 SE5       30.28F
BIG TROUT LK   CLEAR    -27 -35  68 N3        30.14R
PICKLE LAKE    MOCLDY    -4 -13  65 N6        30.02R WCI -16
DRYDEN         MOCLDY     3   0  85 NE5       29.97R WCI  -6
KENORA         NOT AVBL
$$
                *** MANITOBA***

CITY           SKY/WX    TMP DP  RH WIND       PRES   REMARKS
BRANDON        PTCLDY     1  -8  66 NE7       30.10R WCI -11
DAUPHIN        CLEAR    -11 -18  70 NW2       30.17R
ISLAND LAKE    CLEAR    -22 -33  57 NW3       30.18R
PILOT MOUND      N/A      3  -2  78 N8          N/A  WCI -10
THE PAS        CLEAR    -22 -31  63 CALM      30.19R
THOMPSON       PTCLDY   -31 -42  56 NW5       30.20R WCI -46
WINNIPEG       CLEAR     -2  -9  71 NE6       30.12R WCI -14
LYNN LAKE      CLEAR    -27 -40  51 W6        30.11S WCI -44
CHURCHILL      CLEAR    -33 -42  61 W12       30.12F WCI -58
GILLAM         CLEAR    -26 -38  51 W9        30.18R WCI -47
$$
                ***SASKATCHEWAN***

CITY           SKY/WX    TMP DP  RH WIND       PRES   REMARKS
ESTEVAN        MOCLDY    -8 -15  71 NW7       30.08S WCI -22
KINDERSLEY     PTCLDY    -8 -13  77 W6        30.08R WCI -21
LLOYDMINSTER   CLEAR     -4 -13  65 NW7       30.06R WCI -18
PRINCE ALBERT  PTCLDY    -8 -15  71 E2        30.15R
REGINA         MOCLDY     5  -2  72 NW15      30.07R WCI -13
YORKTON        CLOUDY     0 -11  60 S5        30.09R WC



USA.gov is the U.S. government's official web portal to all federal, state and local government web resources and services.